TimeAKST,TemperatureF,Dew PointF,Humidity,Sea Level PressureIn,VisibilityMPH,Wind Direction,Wind SpeedMPH,Gust SpeedMPH,PrecipitationIn,Events,Conditions,WindDirDegrees,DateUTC
12:53 AM,30.9,15.1,52,29.61,10.0,West,10.4,-,N/A,,Overcast,270,2011-11-07 09:53:00
1:53 AM,30.9,14.0,50,29.63,10.0,WNW,10.4,17.3,N/A,,Mostly Cloudy,290,2011-11-07 10:53:00
3:53 AM,30.0,9.0,41,29.65,10.0,Calm,Calm,-,N/A,,Clear,0,2011-11-07 12:53:00
4:53 AM,30.0,8.1,40,29.67,10.0,NE,3.5,-,N/A,,Partly Cloudy,40,2011-11-07 13:53:00
5:53 AM,30.0,3.0,32,29.69,10.0,Calm,Calm,-,N/A,,Partly Cloudy,0,2011-11-07 14:53:00
6:53 AM,30.0,6.1,36,29.70,10.0,West,18.4,27.6,N/A,,Partly Cloudy,280,2011-11-07 15:53:00
7:53 AM,28.9,6.1,38,29.72,10.0,West,9.2,17.3,N/A,,Partly Cloudy,280,2011-11-07 16:53:00
8:53 AM,28.9,10.9,47,29.73,10.0,West,18.4,24.2,N/A,,Partly Cloudy,280,2011-11-07 17:53:00
9:53 AM,28.9,14.0,54,29.75,9.0,West,12.7,-,0.00,Snow,Light Snow,280,2011-11-07 18:53:00
10:53 AM,28.9,7.0,40,29.77,10.0,West,11.5,-,0.00,,Scattered Clouds,270,2011-11-07 19:53:00
11:53 AM,28.9,7.0,40,29.76,10.0,West,18.4,24.2,N/A,,Partly Cloudy,260,2011-11-07 20:53:00
12:53 PM,30.0,10.0,43,29.77,10.0,West,11.5,-,N/A,,Scattered Clouds,260,2011-11-07 21:53:00
1:53 PM,28.9,9.0,43,29.76,10.0,WNW,18.4,23.0,N/A,,Scattered Clouds,290,2011-11-07 22:53:00
2:53 PM,28.9,7.0,40,29.75,10.0,West,21.9,32.2,N/A,,Mostly Cloudy,280,2011-11-07 23:53:00
3:53 PM,28.0,3.9,36,29.74,9.0,West,21.9,29.9,N/A,,Mostly Cloudy,280,2011-11-08 00:53:00
4:53 PM,28.0,5.0,38,29.73,10.0,WNW,25.3,36.8,N/A,,Mostly Cloudy,290,2011-11-08 01:53:00
5:53 PM,27.0,6.1,41,29.77,10.0,WNW,17.3,27.6,N/A,,Mostly Cloudy,300,2011-11-08 02:53:00
6:53 PM,26.1,7.0,44,29.78,10.0,WNW,16.1,28.8,N/A,,Mostly Cloudy,300,2011-11-08 03:53:00
7:53 PM,25.0,9.0,51,29.81,10.0,NW,18.4,32.2,N/A,,Mostly Cloudy,320,2011-11-08 04:53:00
8:53 PM,25.0,9.0,51,29.82,10.0,WNW,16.1,29.9,N/A,,Mostly Cloudy,300,2011-11-08 05:53:00
9:53 PM,25.0,8.1,49,29.84,10.0,WNW,23.0,35.7,N/A,,Mostly Cloudy,290,2011-11-08 06:53:00
10:53 PM,24.1,8.1,51,29.86,10.0,West,18.4,35.7,N/A,,Scattered Clouds,280,2011-11-08 07:53:00
11:53 PM,24.1,6.1,46,29.86,10.0,WNW,27.6,44.9,N/A,,Clear,300,2011-11-08 08:53:00